Weather in Vysoke

Ukraine / Kyiv Region     49°14′56″N   29°48′54″E
temp.,
°C
wind,
m/s
gust,
m/s
humid.,
%
clouds,
%
prec.,
mm/h
press.,
hPa
HPBL,
m
22 october, fri
fri2200:00+14wsw715497 0.0 1008559
03:00+14wsw51153100 0.0 1008522
06:00+14w5115994 0.0 1010551
09:00+13wsw496867 0.0 1011307
12:00+17w79436 0.0 10121311
15:00+18w69295 0.0 10122134
18:00+14w474463 0.0 1012136
21:00+12wsw355443 0.0 101488
23 october, sat
sat2300:00+12wsw48574 0.0 1014245
03:00+10w613645 0.0 1015384
06:00+8w412726 0.0 1015341
09:00+8w511510 0.0 1017765
12:00+11wnw812425 0.0 10181515
15:00+12wnw810315 0.0 10181987
18:00+9wnw48395 0.0 1019181
21:00+6wnw385145 0.0 1021190
24 october, sun
sun2400:00+4wsw36665 0.0 1023110
03:00+3wsw410715 0.0 1023235
06:00+2w4118537 0.0 1024320
09:00+4wnw6108284 0.0 1026685
12:00+5nw7975100 0.0 1027922
15:00+6nw71058100 0.1 10271421
18:00+5nw71164100 0.0 10291298
21:00+6nnw71150100 0.0 10301514
25 october, mon
mon2500:00+5nnw475197 0.0 1031932
03:00+2nw3865100 0.0 1032214
06:00+1nnw35765 0.0 1033104
09:00+1n35721 0.0 1034199
12:00+6nne33440 0.0 1035857
15:00+8ne11330 0.0 10341036
18:00+5e22405 0.0 103310
21:00+3se34495 0.0 103443
26 october, tue
tue2600:00+2sse35545 0.0 103485
03:00+1s36572 0.0 1034100
06:000sse37605 0.0 1033122
09:00+2s49565 0.0 1032242
12:00+7s573291 0.0 1032707
15:00+9s6726100 0.0 1030874
18:00+5sse473684 0.0 1030113
21:00+3s4104898 0.0 1030173